Weather History for KLOR - February, 2013

Change the Weather History Date:

Wednesday, February 27, 2013

  Actual Average (KDHN) Record (KDHN)
Temperature  
Mean Temperature 52 °F 56 °F  
Max Temperature 60 °F 68 °F - ()
Min Temperature 43 °F 44 °F - ()
Degree Days  
Heating Degree Days 14 10  
Month to date heating degree days 334  
Since 1 July heating degree days 1550  
Growing Degree Days 2 (Base 50)    
Moisture  
Dew Point 38 °F    
Average Humidity 66    
Maximum Humidity 89    
Minimum Humidity 42    
Precipitation  
Precipitation 0.00 in 0.15 in - ()
Month to date precipitation 4.61  
Year to date precipitation 9.24  
Sea Level Pressure  
Sea Level Pressure 29.94 in    
Wind  
Wind Speed 2 mph (West)    
Max Wind Speed 9 mph    
Max Gust Speed 17 mph    
Visibility 10 miles    
Events      
T = Trace of Precipitation, MM = Missing Value Source: NWS Daily Summary

Daily Weather History Graph

Daily Weather History Graph

Search for Another Location

Airport or City:

Trip Planner

Search our weather history database for the weather conditions in past years. The results will help you decide how hot, cold, wet, or windy it might be!

Date:

Astronomy

Feb. 27, 2013 Rise Set
Actual Time 6:11 AM CST 5:39 PM CST
Civil Twilight 5:47 AM CST 6:04 PM CST
Nautical Twilight 5:19 AM CST 6:32 PM CST
Astronomical Twilight 4:51 AM CST 7:00 PM CST
Moon 7:47 PM CST (2/27) 6:57 AM CST (2/27)
Length of Visible Light 12h 16m
Length of Day
11h 28m
Waning Gibbous, 96% of the Moon is Illuminated
Feb 27
Waning Gibbous
Mar 4
Last Quarter
Mar 11
New
Mar 19
First Quarter
Mar 27
Full

Hourly Weather History & Observations

Time (CST) Temp. Windchill Dew Point Humidity Pressure Visibility Wind Dir Wind Speed Gust Speed Precip Events Conditions
12:53 AM 48.0 °F - 37.0 °F 66% 29.91 in 10.0 mi Calm Calm - N/A   Clear
1:53 AM 46.0 °F 44.8 °F 39.0 °F 76% 29.91 in 10.0 mi Variable 3.5 mph - N/A   Clear
2:53 AM 45.0 °F - 37.9 °F 76% 29.91 in 10.0 mi Calm Calm - N/A   Clear
3:53 AM 45.0 °F - 37.0 °F 74% 29.91 in 10.0 mi Calm Calm - N/A   Clear
4:53 AM 43.0 °F - 39.0 °F 86% 29.93 in 10.0 mi Calm Calm - N/A   Clear
5:53 AM 43.0 °F - 37.9 °F 82% 29.94 in 10.0 mi Calm Calm - N/A   Clear
6:53 AM 43.0 °F - 39.9 °F 89% 29.95 in 9.0 mi Calm Calm - N/A   Clear
7:53 AM 46.9 °F - 37.9 °F 71% 29.96 in 10.0 mi Variable 3.5 mph - N/A   Clear
8:53 AM 48.9 °F - 37.0 °F 64% 29.98 in 10.0 mi NW 3.5 mph - N/A   Clear
9:53 AM 51.1 °F - 36.0 °F 56% 30.00 in 10.0 mi West 5.8 mph - N/A   Clear
10:53 AM 54.0 °F - 36.0 °F 51% 29.99 in 10.0 mi NW 5.8 mph - N/A   Clear
11:53 AM 55.0 °F - 37.0 °F 51% 29.98 in 10.0 mi West 4.6 mph - N/A   Clear
12:53 PM 55.9 °F - 37.0 °F 49% 29.95 in 10.0 mi West 9.2 mph - N/A   Clear
1:53 PM 59.0 °F - 37.0 °F 44% 29.93 in 10.0 mi West 8.1 mph - N/A   Clear
2:53 PM 60.1 °F - 37.0 °F 42% 29.93 in 10.0 mi West 8.1 mph 17.3 mph N/A   Clear
3:53 PM 60.1 °F - 37.9 °F 44% 29.92 in 10.0 mi West 5.8 mph - N/A   Clear
4:53 PM 60.1 °F - 37.0 °F 42% 29.92 in 10.0 mi West 5.8 mph - N/A   Clear
5:53 PM 55.9 °F - 39.0 °F 53% 29.92 in 10.0 mi Calm Calm - N/A   Clear
6:53 PM 51.1 °F - 42.1 °F 71% 29.93 in 10.0 mi Calm Calm - N/A   Clear
7:53 PM 48.9 °F - 41.0 °F 74% 29.93 in 10.0 mi Calm Calm - N/A   Clear
8:53 PM 46.9 °F - 41.0 °F 80% 29.95 in 10.0 mi Calm Calm - N/A   Partly Cloudy
9:53 PM 48.0 °F - 41.0 °F 77% 29.96 in 10.0 mi Variable 3.5 mph - N/A   Clear
10:53 PM 46.9 °F - 41.0 °F 80% 29.96 in 10.0 mi Calm Calm - N/A   Clear
11:53 PM 46.9 °F - 41.0 °F 80% 29.95 in 10.0 mi WNW 3.5 mph - N/A   Clear